EW0395 Weather Reports


Display with metric or nautical units.
time (UTC)temp
F
wind
direction
speed
MPH
gust
MPH
rain 1hr
in
rain 24hr
in
rain mn
in
humidity
%
barometer
mb
20260510160037 63 195 1.0 3.0 0.00 0.35 0.01 68 1012.3
20260510154536 62 228 0.0 2.0 0.00 0.42 0.01 71 1012.2
20260510153032 62 248 0.0 3.0 0.00 0.42 0.01 68 1012.1
20260510151539 63 273 1.0 3.0 0.00 0.42 0.01 69 1012.0
20260510150042 61 150 1.0 2.0 0.00 0.42 0.01 74 1012.1
20260510144536 61 257 1.0 3.0 0.00 0.46 0.01 74 1012.1
20260510143034 60 231 1.0 4.0 0.00 0.46 0.01 78 1012.0
20260510141534 58 196 1.0 3.0 0.00 0.46 0.01 85 1012.0
20260510140034 55 125 1.0 3.0 0.00 0.46 0.01 85 1012.1
20260510134532 55 247 1.0 3.0 0.00 0.46 0.01 85 1012.3
20260510133031 56 143 1.0 3.0 0.00 0.46 0.01 85 1012.0
20260510131534 56 223 1.0 3.0 0.00 0.46 0.01 85 1011.8
20260510130034 54 244 1.0 5.0 0.00 0.46 0.01 90 1012.0
20260510124531 52 249 1.0 3.0 0.00 0.46 0.01 92 1011.9
20260510123033 50 178 0.0 3.0 0.00 0.46 0.01 95 1011.9
20260510121531 50 215 0.0 1.0 0.00 0.46 0.01 98 1012.0
20260510120031 49 246 0.0 3.0 0.00 0.46 0.01 98 1011.9
20260510114537 49 0 0.0 1.0 0.00 0.46 0.01 98 1011.6
20260510113032 49 0 0.0 2.0 0.00 0.46 0.01 98 1011.9
20260510111535 48 207 0.0 1.0 0.00 0.46 0.01 98 1011.8
20260510110033 48 0 0.0 1.0 0.00 0.46 0.01 99 1011.5
20260510104533 48 0 0.0 1.0 0.00 0.46 0.01 99 1011.0
20260510103031 48 0 0.0 2.0 0.00 0.46 0.01 99 1010.8
20260510101534 48 211 0.0 1.0 0.00 0.46 0.01 99 1010.3
20260510100040 47 83 0.0 1.0 0.00 0.46 0.01 99 1010.3
20260510094544 47 0 0.0 1.0 0.00 0.46 0.01 99 1010.3
20260510093035 47 0 0.0 1.0 0.00 0.46 0.01 99 1009.9
20260510091541 47 0 0.0 1.0 0.00 0.46 0.01 99 1010.2
20260510090034 47 0 0.0 1.0 0.00 0.46 0.01 99 1010.2
20260510084535 46 0 0.0 0.0 0.00 0.46 0.01 99 1010.6
20260510083049 46 0 0.0 2.0 0.00 0.46 0.01 99 1010.6
20260510081536 46 0 0.0 0.0 0.00 0.46 0.01 99 1010.8
20260510080032 46 0 0.0 0.0 0.00 0.46 0.01 99 1010.6
20260510074533 46 0 0.0 1.0 0.00 0.46 0.01 99 1010.6
20260510073035 45 0 0.0 1.0 0.00 0.46 0.01 99 1010.5
20260510071538 44 0 0.0 1.0 0.00 0.46 0.01 98 1010.5
20260510070037 44 0 0.0 1.0 0.01 0.46 0.01 98 1010.3
20260510064531 44 0 0.0 0.0 0.01 0.46 0.01 98 1010.8
20260510063041 45 0 0.0 0.0 0.01 0.46 0.01 98 1011.0
20260510061533 45 0 0.0 0.0 0.01 0.46 0.01 98 1010.8
20260510060040 45 0 0.0 0.0 0.00 0.45 0.00 98 1010.8
20260510054537 45 0 0.0 0.0 0.00 0.45 0.00 98 1010.8
20260510053030 45 0 0.0 0.0 0.00 0.45 0.00 98 1010.7
20260510051534 45 0 0.0 1.0 0.00 0.45 0.00 98 1010.7
20260510050029 45 0 0.0 1.0 0.00 0.45 0.00 98 1010.9
20260510044533 45 0 0.0 1.0 0.00 0.45 0.00 98 1011.0
20260510043035 45 16 0.0 1.0 0.00 0.45 0.00 98 1011.1
20260510041535 45 0 0.0 2.0 0.00 0.45 0.00 98 1011.3
20260510040030 45 0 0.0 1.0 0.00 0.45 0.00 97 1011.2
20260510034532 45 223 0.0 2.0 0.00 0.45 0.45 98 1011.1
20260510033035 44 0 0.0 2.0 0.00 0.45 0.45 98 1011.2
20260510031531 44 111 0.0 1.0 0.00 0.45 0.45 98 1011.1
20260510030033 44 0 0.0 2.0 0.00 0.45 0.45 97 1011.5
20260510024530 44 102 0.0 1.0 0.00 0.45 0.45 97 1011.8
20260510023034 44 0 0.0 1.0 0.00 0.45 0.45 97 1011.7
20260510021534 44 0 0.0 1.0 0.00 0.45 0.45 97 1011.7
20260510020034 44 44 0.0 2.0 0.00 0.45 0.45 97 1011.7
20260510014532 44 0 0.0 1.0 0.00 0.45 0.45 96 1011.7
20260510013032 44 0 0.0 3.0 0.00 0.45 0.45 97 1011.8
20260510011532 44 192 0.0 2.0 0.00 0.45 0.45 97 1011.9
20260510010032 44 0 0.0 1.0 0.00 0.45 0.45 96 1012.0
20260510004531 44 250 0.0 1.0 0.00 0.45 0.45 96 1011.9
20260510003040 44 0 0.0 1.0 0.00 0.45 0.45 95 1011.6
20260510001533 45 182 0.0 4.0 0.00 0.45 0.45 95 1011.4
20260510000031 45 113 0.0 4.0 0.00 0.45 0.45 95 1011.1
20260509234539 45 64 0.0 2.0 0.00 0.45 0.45 96 1010.9
20260509233036 45 0 0.0 3.0 0.00 0.45 0.45 96 1011.0
20260509231540 45 263 0.0 1.0 0.00 0.45 0.45 95 1010.9
20260509230034 45 0 0.0 1.0 0.00 0.45 0.45 96 1011.0
20260509224534 45 323 0.0 1.0 0.00 0.45 0.45 96 1011.0
20260509223031 45 298 0.0 2.0 0.01 0.45 0.45 96 1011.0
20260509221535 45 123 0.0 3.0 0.01 0.45 0.45 96 1011.0
20260509220035 44 0 0.0 1.0 0.01 0.45 0.45 96 1011.2
20260509214534 45 0 0.0 2.0 0.02 0.45 0.45 96 1011.2
20260509213032 44 175 0.0 2.0 0.03 0.44 0.44 95 1011.3
20260509211531 45 302 0.0 2.0 0.05 0.44 0.44 95 1011.4
20260509210033 45 94 0.0 2.0 0.07 0.44 0.44 94 1011.3
20260509204531 45 0 1.0 4.0 0.07 0.42 0.42 94 1011.4
20260509203039 45 0 0.0 3.0 0.08 0.41 0.41 94 1011.4
20260509201530 45 178 1.0 5.0 0.08 0.39 0.39 94 1011.7
20260509200030 45 0 0.0 2.0 0.07 0.37 0.37 94 1011.8
20260509194532 45 0 0.0 1.0 0.06 0.35 0.35 94 1011.8
20260509193034 45 0 0.0 1.0 0.05 0.33 0.33 95 1011.9
20260509191538 45 0 0.0 1.0 0.04 0.31 0.31 94 1012.0
20260509190030 45 0 0.0 1.0 0.04 0.30 0.30 94 1012.1
20260509184533 45 326 0.0 2.0 0.06 0.29 0.29 93 1012.1
20260509183033 45 0 1.0 4.0 0.08 0.28 0.28 94 1012.3
20260509181548 45 0 0.0 1.0 0.09 0.27 0.27 94 1012.3
20260509180032 45 36 0.0 1.0 0.09 0.25 0.25 93 1012.5
20260509174532 45 0 0.0 3.0 0.08 0.23 0.23 93 1012.7
20260509173034 45 196 0.0 3.0 0.05 0.19 0.19 92 1012.7
20260509171537 45 144 1.0 4.0 0.05 0.18 0.18 92 1012.8
20260509170042 45 0 0.0 1.0 0.05 0.16 0.16 92 1012.9
20260509164537 44 144 1.0 2.0 0.06 0.15 0.15 92 1012.9
20260509163034 44 84 1.0 4.0 0.07 0.14 0.14 92 1013.1
20260509161534 44 236 0.0 2.0 0.07 0.13 0.13 93 1013.1